カタログに戻る

METEOR 2-8 DEB

LostPO
NORAD 36866·DEBRIS·🇷🇺 Russia

打ち上げ Mar 25, 1982 から Plesetsk Cosmodrome

Loading…

次のパス (今後24時間)

TLE

古いSource: Space-Track

元期: Nov 27, 2023, 11:17 UTC

1 36866U 82025BD  23331.47068443  .00005542  00000-0  32662-2 0  9991
2 36866  82.5315  21.3738 0016106  16.5771 343.5925 14.07684203  7328

AllMySatでMETEOR 2-8 DEBをリアルタイム追跡

Download on the App Store